Location: Newark
(41.0400°S, 62.7845°W)
Time: 02:53:29
(UTC+00:00)

Transit 2A - Pass Details

Date: 05 December 2021
Orbit: 591 x 967 km, 66.7° (Epoch: 20 January)

Event Time Altitude Azimuth Distance (km) Brightness Sun altitude
Rises 17:23:49 0° 282° (WNW) 3,131 9.5 64.7°
Reaches altitude 10° 17:27:19 10° 258° (WSW) 2,139 8.7 64.2°
Maximum altitude 17:29:57 14° 224° (SW) 1,807 8.2 63.8°
Drops below altitude 10° 17:32:30 10° 191° (S) 2,050 8.2 63.4°
Sets 17:35:44 0° 165° (SSE) 2,916 8.8 62.9°
